TimeEDT,TemperatureF,Dew PointF,Humidity,Sea Level PressureIn,VisibilityMPH,Wind Direction,Wind SpeedMPH,Gust SpeedMPH,PrecipitationIn,Events,Conditions,WindDirDegrees,DateUTC
12:56 AM,80.1,69.1,69,29.91,10.0,Calm,Calm,-,N/A,,Partly Cloudy,0,2013-07-21 04:56:00
1:56 AM,79.0,69.1,72,29.91,10.0,Calm,Calm,-,N/A,,Clear,0,2013-07-21 05:56:00
2:56 AM,78.1,69.1,74,29.91,10.0,Calm,Calm,-,N/A,,Scattered Clouds,0,2013-07-21 06:56:00
3:56 AM,75.9,71.1,85,29.91,10.0,West,3.5,-,N/A,,Clear,270,2013-07-21 07:56:00
4:56 AM,75.0,70.0,84,29.91,10.0,Calm,Calm,-,N/A,,Clear,0,2013-07-21 08:56:00
5:56 AM,75.0,70.0,84,29.93,10.0,West,3.5,-,N/A,,Clear,270,2013-07-21 09:56:00
6:56 AM,75.0,70.0,84,29.94,10.0,NW,6.9,-,N/A,,Clear,310,2013-07-21 10:56:00
7:56 AM,78.1,71.1,79,29.94,10.0,Calm,Calm,-,N/A,,Clear,0,2013-07-21 11:56:00
8:56 AM,81.0,71.1,72,29.95,10.0,Calm,Calm,-,N/A,,Scattered Clouds,0,2013-07-21 12:56:00
9:56 AM,81.0,70.0,69,29.95,10.0,Calm,Calm,-,N/A,,Mostly Cloudy,0,2013-07-21 13:56:00
10:56 AM,82.9,71.1,67,29.96,10.0,South,5.8,-,N/A,,Mostly Cloudy,190,2013-07-21 14:56:00
11:56 AM,86.0,71.1,61,29.96,10.0,SSE,4.6,-,N/A,,Mostly Cloudy,160,2013-07-21 15:56:00
12:56 PM,88.0,68.0,51,29.96,10.0,South,4.6,-,N/A,,Clear,180,2013-07-21 16:56:00
1:56 PM,88.0,70.0,55,29.94,10.0,SSW,6.9,-,N/A,,Clear,200,2013-07-21 17:56:00
2:56 PM,89.1,70.0,53,29.93,10.0,SSW,4.6,-,N/A,,Mostly Cloudy,200,2013-07-21 18:56:00
3:56 PM,88.0,68.0,51,29.92,10.0,SSW,4.6,-,N/A,,Mostly Cloudy,200,2013-07-21 19:56:00
4:56 PM,84.0,75.0,74,29.92,3.0,WNW,11.5,-,N/A,Thunderstorm,Unknown,290,2013-07-21 20:56:00
5:43 PM,77.0,71.6,83,29.91,7.0,NNW,5.8,-,0.07,Rain,Light Rain,330,2013-07-21 21:43:00
5:56 PM,78.1,72.0,81,29.90,10.0,ENE,4.6,-,0.07,Rain,Light Rain,60,2013-07-21 21:56:00
6:56 PM,78.1,70.0,76,29.94,10.0,SW,8.1,-,0.00,,Clear,230,2013-07-21 22:56:00
7:56 PM,79.0,71.1,77,29.94,10.0,WNW,5.8,-,N/A,,Clear,290,2013-07-21 23:56:00
8:56 PM,77.0,71.1,82,29.94,10.0,WSW,4.6,-,N/A,,Partly Cloudy,250,2013-07-22 00:56:00
9:56 PM,75.9,69.1,79,29.97,10.0,West,3.5,-,N/A,,Partly Cloudy,260,2013-07-22 01:56:00
10:56 PM,75.9,71.1,85,29.96,10.0,WNW,3.5,-,N/A,,Partly Cloudy,300,2013-07-22 02:56:00
11:56 PM,75.0,69.1,82,29.95,10.0,WSW,4.6,-,N/A,,Partly Cloudy,250,2013-07-22 03:56:00